Weather Service Report


973 
ASUS43 KLMK 212310
RWRKY 
KENTUCKY REGIONAL WEATHER ROUNDUP
NATIONAL WEATHER SERVICE LOUISVILLE KY
700 PM EDT THU AUG 21 2014

NOTE "FAIR" INDICATES FEW OR NO CLOUDS BELOW 12,000 FEET
WITH NO SIGNIFICANT WEATHER AND/OR OBSTRUCTIONS TO VISIBILITY.

KYZ001>023-026-027-061>063-070>075-220000-
WESTERN AND SOUTH CENTRAL KENTUCKY
  
CITY           SKY/WX    TMP DP  RH WIND       PRES   REMARKS
PADUCAH        MOSUNNY   91  74  57 SW12G23   29.99F HX 100           
HENDERSON      MOSUNNY   88  72  58 SW5       29.97F HX  94           
OWENSBORO      SUNNY     90  74  59 S10       29.99F HX  99           
HOPKINSVILLE   SUNNY     91  71  51 SW15      30.03S HX  98           
BOWLING GREEN  MOSUNNY   90  69  50 S8        30.03S HX  94           
GLASGOW        SUNNY     89  71  55 S5        30.04S HX  95           
$$

KYZ024-025-028>034-038-045-046-053-220000-
NORTH CENTRAL KENTUCKY
  
CITY           SKY/WX    TMP DP  RH WIND       PRES   REMARKS
LOUISVILLE/SDF MOSUNNY   88  72  58 S9        30.00F HX  94           
LOUISVILLE/LOU SUNNY     87  72  60 S9        30.01S HX  93           
FORT KNOX      SUNNY     88  74  63 S6        30.01F HX  96           
$$

KYZ035>037-039>044-047>052-055>060-089>105-220000-
NORTHEAST KENTUCKY
  
CITY           SKY/WX    TMP DP  RH WIND       PRES   REMARKS
LEXINGTON      PTSUNNY   86  72  62 SW7       30.05F HX  92           
COVINGTON      MOSUNNY   83  74  74 S7        30.02S                  
FRANKFORT      MOSUNNY   84  72  67 SW8       30.02F                  
$$

KYZ054-064>069-076>088-106>120-220000-
SOUTHEAST KENTUCKY
  
CITY           SKY/WX    TMP DP  RH WIND       PRES   REMARKS
JACKSON        CLOUDY    72  69  90 CALM      30.11F                  
LONDON         PTSUNNY   86  70  58 SW6       30.10F HX  90           
SOMERSET       PTSUNNY   86  70  58 SW5       30.09S HX  90           
MIDDLESBORO    MOSUNNY   88  70  56 SW3       30.11S HX  92           
MONTICELLO     PTCLDY    87  76  69 SW5       30.09F HX  97           
$$


Return to Home page


Western Regional Climate Center, wrcc@dri.edu